Weather History for KMFR - December, 2013

Change the Weather History Date:

Tuesday, December 24, 2013

  Actual Average Record
Temperature  
Mean Temperature 40 °F 39 °F  
Max Temperature 49 °F 45 °F 62 °F (1919)
Min Temperature 30 °F 32 °F 10 °F (1990)
Degree Days  
Heating Degree Days 25 26  
Month to date heating degree days 816 612  
Since 1 July heating degree days 1867 1581  
Cooling Degree Days 0 0  
Month to date cooling degree days 0 0  
Year to date cooling degree days 1057 829  
Moisture  
Dew Point 37 °F    
Average Humidity 86    
Maximum Humidity 100    
Minimum Humidity 71    
Precipitation  
Precipitation 0.00 in 0.11 in 1.24 in (1965)
Month to date precipitation 0.35 2.77  
Year to date precipitation 8.98 17.63  
Snow  
Snow 0.00 in 0.00 in - ()
Month to date snowfall 3.4 1.0  
Since 1 July snowfall 3.4 1.2  
Snow Depth -    
Sea Level Pressure  
Sea Level Pressure 30.48 in    
Wind  
Wind Speed 1 mph (South)    
Max Wind Speed 6 mph    
Max Gust Speed 7 mph    
Visibility 4 miles    
Events Fog    
T = Trace of Precipitation, MM = Missing Value Source: NWS Daily Summary

Daily Weather History Graph

Daily Weather History Graph

Search for Another Location

Airport or City:

Trip Planner

Search our weather history database for the weather conditions in past years. The results will help you decide how hot, cold, wet, or windy it might be!

Date:

Astronomy

Dec. 24, 2013 Rise Set
Actual Time 7:38 AM PST 4:43 PM PST
Civil Twilight 7:06 AM PST 5:15 PM PST
Nautical Twilight 6:31 AM PST 5:51 PM PST
Astronomical Twilight 5:57 AM PST 6:25 PM PST
Moon No Moon Rise 11:27 AM PST (12/24)
Length of Visible Light 10h 08m
Length of Day
9h 04m
Waning Gibbous, 57% of the Moon is Illuminated
Dec 24
Waning Gibbous
Dec 25
Last Quarter
Jan 1
New
Jan 7
First Quarter
Jan 15
Full

Hourly Weather History & Observations

Time (PST) Temp. Windchill Dew Point Humidity Pressure Visibility Wind Dir Wind Speed Gust Speed Precip Events Conditions
12:08 AM 39.0 °F - 37.9 °F 96% 30.49 in 0.2 mi Calm Calm - N/A Fog Fog
12:32 AM 39.9 °F - 39.0 °F 97% 30.48 in 0.5 mi Calm Calm - N/A Fog Fog
12:40 AM 39.9 °F - 39.0 °F 97% 30.48 in 1.0 mi Calm Calm - N/A   Overcast
12:46 AM 39.9 °F - 39.0 °F 97% 30.48 in 2.0 mi Calm Calm - N/A   Overcast
12:53 AM 39.9 °F - 39.0 °F 97% 30.50 in 2.0 mi Calm Calm - N/A   Overcast
1:15 AM 39.9 °F - 39.0 °F 97% 30.48 in 1.0 mi Calm Calm - N/A   Overcast
1:23 AM 39.9 °F - 39.0 °F 97% 30.48 in 0.8 mi Calm Calm - N/A   Overcast
1:53 AM 39.9 °F - 39.0 °F 97% 30.51 in 0.8 mi Calm Calm - N/A   Overcast
2:02 AM 39.0 °F - 37.9 °F 96% 30.49 in 2.0 mi Calm Calm - N/A   Overcast
2:05 AM 39.0 °F - 37.9 °F 96% 30.50 in 4.0 mi Calm Calm - N/A   Overcast
2:53 AM 39.9 °F 37.8 °F 37.9 °F 93% 30.53 in 5.0 mi South 3.5 mph - N/A   Overcast
3:22 AM 39.9 °F 37.8 °F 37.9 °F 93% 30.51 in 5.0 mi SSW 3.5 mph - N/A   Overcast
3:35 AM 39.9 °F 37.8 °F 39.0 °F 97% 30.51 in 5.0 mi South 3.5 mph - N/A   Overcast
3:45 AM 39.9 °F - 39.0 °F 97% 30.51 in 4.0 mi Calm Calm - N/A   Overcast
3:53 AM 39.9 °F - 39.0 °F 97% 30.53 in 4.0 mi Calm Calm - N/A   Overcast
4:31 AM 41.0 °F - 39.9 °F 96% 30.51 in 2.5 mi Calm Calm - N/A   Overcast
4:38 AM 41.0 °F - 39.9 °F 96% 30.51 in 3.0 mi Calm Calm - N/A   Overcast
4:53 AM 42.1 °F - 39.9 °F 92% 30.53 in 4.0 mi Calm Calm - N/A   Overcast
5:36 AM 42.1 °F - 39.9 °F 92% 30.51 in 4.0 mi Calm Calm - N/A   Overcast
5:53 AM 42.1 °F - 39.9 °F 92% 30.53 in 4.0 mi Calm Calm - N/A   Overcast
6:53 AM 41.0 °F - 39.9 °F 96% 30.52 in 4.0 mi Calm Calm - N/A   Overcast
7:31 AM 42.1 °F - 39.9 °F 92% 30.51 in 1.0 mi Calm Calm - N/A   Overcast
7:53 AM 42.1 °F - 39.9 °F 92% 30.53 in 1.0 mi Calm Calm - N/A   Overcast
8:11 AM 42.1 °F - 39.9 °F 92% 30.51 in 0.8 mi Calm Calm - N/A   Overcast
8:53 AM 42.1 °F - 41.0 °F 96% 30.53 in 1.8 mi Calm Calm - N/A   Overcast
9:53 AM 42.1 °F - 41.0 °F 96% 30.53 in 1.5 mi Calm Calm - N/A   Overcast
10:22 AM 43.0 °F - 41.0 °F 93% 30.51 in 2.0 mi Calm Calm - N/A   Overcast
10:36 AM 43.0 °F 41.3 °F 41.0 °F 93% 30.50 in 3.0 mi NNW 3.5 mph - N/A   Overcast
10:53 AM 44.1 °F 42.5 °F 41.0 °F 89% 30.52 in 5.0 mi North 3.5 mph - N/A   Overcast
11:53 AM 46.0 °F - 42.1 °F 86% 30.50 in 6.0 mi Calm Calm - N/A   Overcast
12:00 PM 46.0 °F - 42.1 °F 86% 30.47 in 7.0 mi Calm Calm - N/A   Overcast
12:53 PM 46.9 °F - 39.9 °F 77% 30.47 in 7.0 mi NNE 5.8 mph - N/A   Overcast
1:00 PM 46.9 °F - 39.9 °F 77% 30.45 in 10.0 mi Variable 3.5 mph - N/A   Overcast
1:53 PM 46.9 °F - 39.9 °F 77% 30.45 in 10.0 mi Calm Calm - N/A   Partly Cloudy
2:53 PM 48.0 °F - 39.9 °F 74% 30.44 in 10.0 mi Calm Calm - N/A   Clear
3:53 PM 48.0 °F - 39.9 °F 74% 30.44 in 10.0 mi South 3.5 mph - N/A   Clear
4:53 PM 45.0 °F 43.5 °F 39.0 °F 80% 30.44 in 10.0 mi SSW 3.5 mph - N/A   Clear
5:53 PM 42.1 °F 40.2 °F 37.9 °F 85% 30.44 in 10.0 mi SSE 3.5 mph - N/A   Clear
6:53 PM 39.0 °F - 36.0 °F 89% 30.45 in 6.0 mi Calm Calm - N/A   Clear
7:36 PM 34.0 °F - 30.9 °F 89% 30.43 in 1.5 mi Calm Calm - N/A   Clear
7:43 PM 34.0 °F - 33.1 °F 96% 30.43 in 3.0 mi Calm Calm - N/A   Clear
7:53 PM 34.0 °F - 32.0 °F 92% 30.45 in 3.0 mi Calm Calm - N/A   Clear
8:13 PM 34.0 °F - 33.1 °F 96% 30.43 in 4.0 mi Calm Calm - N/A   Clear
8:20 PM 35.1 °F - 33.1 °F 92% 30.43 in 4.0 mi Calm Calm - N/A   Clear
8:53 PM 35.1 °F - 33.1 °F 92% 30.46 in 4.0 mi Calm Calm - N/A   Clear
9:53 PM 35.1 °F - 33.1 °F 92% 30.46 in 5.0 mi Calm Calm - N/A   Clear
10:53 PM 32.0 °F - 30.0 °F 92% 30.47 in 2.5 mi Calm Calm - N/A   Clear
11:12 PM 30.9 °F - 28.9 °F 92% 30.44 in 1.2 mi Calm Calm - N/A   Clear
11:19 PM 30.9 °F - 28.9 °F 92% 30.44 in 1.2 mi Calm Calm - N/A   Scattered Clouds
11:22 PM 30.9 °F - 28.9 °F 92% 30.44 in 2.5 mi Calm Calm - N/A   Mostly Cloudy
11:29 PM 30.9 °F - 28.9 °F 92% 30.44 in 3.0 mi Calm Calm - N/A   Mostly Cloudy
11:37 PM 30.9 °F - 30.0 °F 96% 30.44 in 2.5 mi Calm Calm - N/A   Overcast
11:46 PM 32.0 °F - 30.9 °F 96% 30.44 in 4.0 mi Calm Calm - N/A   Overcast
11:53 PM 33.1 °F - 30.9 °F 92% 30.46 in 5.0 mi Calm Calm - N/A   Overcast